Location: Warszawa
(52.2500°N, 21.0000°E)
Time: 21:11:13
(UTC+02:00)

Vanguard 2 - Pass Details

Date: 08 February 2023
Orbit: 553 x 2927 km, 32.9° (Epoch: 27 March)

Event Time Altitude Azimuth Distance (km) Brightness Sun altitude
Rises 19:05:20 0° 204° (SSW) 4,603 11.7 -23.2°
Reaches altitude 10° 19:09:06 10° 188° (S) 4,005 11.2 -23.8°
Maximum altitude 19:16:38 21° 146° (SE) 3,855 10.7 -24.9°
Enters shadow 19:17:36 21° 140° (SE) 3,939 10.7 -25.1°
